Regional Weather Roundup
Issued by NWS

Home | Current Version | Previous Version | Graphics & Text | Print | Product List | Glossary On
Versions: 1 2 3 4 5 6 7 8 9 10 11 12 13 14 15 16 17 18 19 20 21 22 23 24 25 26 27 28 29 30 31 32 33 34 35 36 37 38 39 40 41 42 43 44 45 46 47 48 49 50
000
ASUS43 KDMX 260308
RWRIA

WEATHER ROUNDUP FOR IOWA
NATIONAL WEATHER SERVICE DES MOINES IA
1000 PM CDT SUN SEP 25 2016

NOTE: "FAIR" INDICATES FEW OR NO CLOUDS BELOW 12,000 FEET WITH NO
SIGNIFICANT WEATHER AND/OR OBSTRUCTIONS TO VISIBILITY.

* - THESE STATIONS ARE NOT NWS STATIONS...THUS NOT UNDER NWS
QUALITY CONTROL.  THEY ALSO DO NOT REPORT WEATHER SUCH
AS PRECIPITATION OR FOG.

IAZ001>003-012>014-020>022-031>034-043>046-260400-
   NORTHWEST IOWA

CITY           SKY/WX    TMP DP  RH WIND       PRES   REMARKS
CARROLL *      CLEAR     55  46  71 W10       30.16R
CHEROKEE *     CLEAR     56  40  56 NW8       30.16S
DENISON *      CLEAR     55  41  58 NW6       30.17R
LE MARS *      CLEAR     52  41  66 NW5       30.19R
ORANGE CITY *  CLEAR     50  43  76 W6        30.17S
SHELDON *      CLEAR     50  43  76 W7        30.15R
SIOUX CITY     CLEAR     54  42  64 NW6       30.19R
SPENCER        CLEAR     53  43  68 W9        30.14R
STORM LAKE *   CLEAR     54  43  66 W10       30.16R
$$

IAZ055>058-069>071-079>083-090>094-260400-
   SOUTHWEST IOWA

CITY           SKY/WX    TMP DP  RH WIND       PRES   REMARKS
ATLANTIC *     CLEAR     57  46  67 W8        30.18R
AUDUBON *      CLEAR     57  46  67 W3        30.18R
CLARINDA *       N/A     54  52  94 MISG      30.20R
COUNCIL BLFS * CLEAR     57  41  54 NW8       30.20S
CRESTON *      CLEAR     54  50  87 W5        30.18R
HARLAN  *      CLEAR     54  46  76 W8        30.22R
LAMONI         MOCLDY    56  51  84 W7        30.17R
RED OAK *      CLEAR     55  48  76 NW8       30.20R
SHENANDOAH *   CLEAR     59  48  67 NW7       30.21R
$$

IAZ047>049-059>061-072>074-084-260400-
   CENTRAL IOWA

CITY           SKY/WX    TMP DP  RH WIND       PRES   REMARKS
AMES           PTCLDY    54  53  97 W7        30.12R
ANKENY *         N/A    N/A N/A N/A MISG        N/A
BOONE *        CLEAR     54  50  87 W5        30.12R
CHARITON *       N/A     55  50  82 W6        30.15R
DES MOINES     PTCLDY    58  51  78 W6        30.13R
GRINNELL*      CLOUDY    55  50  82 W6        30.12R
KNOXVILLE *    CLOUDY    55  50  82 W7        30.12S
MARSHALLTOWN   CLEAR     55  51  86 W5        30.10R
NEWTON *       CLEAR     55  50  82 W6        30.11S
PELLA *        PTCLDY    57  50  77 W7        30.14R
PERRY *          N/A     54  51  91 W7        30.14S
$$

IAZ004>006-015-016-023>025-035-036-260400-
   NORTH CENTRAL IOWA

CITY           SKY/WX    TMP DP  RH WIND       PRES   REMARKS
ALGONA *       CLEAR     55  46  71 W10       30.11S
CLARION *      CLEAR     54  52  94 W7        30.10S
ESTHERVILLE    CLEAR     54  43  66 W9        30.12R
FORT DODGE *   CLEAR     54  46  76 W7        30.12R
MASON CITY     PTCLDY    55  49  80 W12       30.09R
FOREST CITY *    N/A     52  46  82 W9        30.09R
WEBSTER CITY * PTCLDY    54  50  87 SW8       30.10R
IOWA FALLS *     N/A     54  50  87 W5        30.10F
$$

IAZ007>011-017>019-026>030-037>042-050>054-066-260400-
   NORTHEAST IOWA

CITY           SKY/WX    TMP DP  RH WIND       PRES   REMARKS
CEDAR RAPIDS   CLOUDY    59  52  77 NW10      30.07R
CHARLES CITY * CLEAR     55  54  94 W7        30.06S
CLINTON *      MOCLDY    64  52  64 W10       30.05R
DECORAH *      CLOUDY    57  52  82 VRB6G13   30.02S
DUBUQUE        CLOUDY    61  51  70 NW17      30.04R
MONTICELLO *   CLOUDY    63  52  67 W9G17     30.05R
OELWEIN *      PTCLDY    57  52  82 W10       30.07R
WATERLOO       CLEAR     58  51  78 W9        30.07R
$$

IAZ064-065-067-068-078-260400-
   EAST CENTRAL IOWA

CITY           SKY/WX    TMP DP  RH WIND       PRES   REMARKS
DAVENPORT      CLOUDY    64  50  60 W13G18    30.05S
IOWA CITY      CLOUDY    63  50  62 NW13      30.09R
MT. PLEASANT * PTCLDY    66  50  57 NW12      30.11R
MUSCATINE *    CLOUDY    64  50  59 W13       30.08R
QUAD CITIES    MOCLDY    66  49  54 W12       30.05R
$$

IAZ062-063-075>077-085>089-095>099-260400-
   SOUTHEAST IOWA

CITY           SKY/WX    TMP DP  RH WIND       PRES   REMARKS
BURLINGTON     CLOUDY    64  50  60 NW9       30.08R
FAIRFIELD *    CLOUDY    63  48  59 NW12      30.11R
FORT MADISON *   N/A     64  52  63 NW12      30.10S
KEOKUK *       PTCLDY    66  54  63 NW9G15    30.10R
OSKALOOSA *      N/A     60  49  68 NW7       30.12R
OTTUMWA        CLOUDY    60  48  64 NW10      30.12R
WASHINGTON *     N/A    N/A N/A N/A MISG        N/A
$$

ABBREVIATIONS USED IN REMARKS
   TC - TEMPERATURES IN CELSIUS
  WCI - WIND CHILL INDEX
   HX - HEAT INDEX
  VSB - VISIBILITY
$$





USA.gov is the U.S. government's official web portal to all federal, state and local government web resources and services.